This is the latest recevied weather packets stored in our database for station/object F1PPH-3. If no packets are shown the sender has not sent any weather packets the latest 10 day(s).
| Time | Temp. | Humidity | Pressure | Rain* | Wind** | Luminosity | Snow |
|---|---|---|---|---|---|---|---|
| 1777295818 | 27.22° C | 34% | 1013.3 hPa | - | - | - | - |
| 1777292938 | 26.67° C | 34% | 1013.5 hPa | - | - | - | - |
| 1777290059 | 26.11° C | 34% | 1014 hPa | - | - | - | - |
| 1777287179 | 25.56° C | 34% | 1014.3 hPa | - | - | - | - |
| 1777284297 | 25° C | 34% | 1014.6 hPa | - | - | - | - |
| 1777281417 | 24.44° C | 34% | 1015.1 hPa | - | - | - | - |
| 1777274937 | 24.44° C | 34% | 1015.1 hPa | - | - | - | - |
| 1777264611 | 25° C | 34% | 1014.2 hPa | - | - | - | - |
| 1777261730 | 25° C | 34% | 1014.1 hPa | - | - | - | - |
| 1777258850 | 25° C | 34% | 1014.2 hPa | - | - | - | - |
| 1777255970 | 25.56° C | 34% | 1014.2 hPa | - | - | - | - |
| 1777244448 | 27.22° C | 33% | 1015 hPa | - | - | - | - |
| 1777241309 | 27.78° C | 33% | 1014.8 hPa | - | - | - | - |
| 1777234109 | 28.33° C | 33% | 1014.3 hPa | - | - | - | - |
| 1777230508 | 28.89° C | 33% | 1013.8 hPa | - | - | - | - |
| 1777227134 | 28.89° C | 33% | 1013.4 hPa | - | - | - | - |
| 1777223533 | 28.89° C | 33% | 1013.3 hPa | - | - | - | - |
| 1777219932 | 28.89° C | 33% | 1013.3 hPa | - | - | - | - |
| 1777217052 | 28.33° C | 33% | 1013.5 hPa | - | - | - | - |
| 1777210573 | 27.22° C | 34% | 1014.2 hPa | - | - | - | - |
* Rain since midnight (hover to see other rain measurements)
** Current wind speed in m/s (hover to see current wind gust speed)